Volver al catálogo

THOR ABLESTAR DEB

ActivoLEO
NORAD 119·DEBRIS·🇺🇸 United States

Lanzado Jun 29, 1961 desde Cape Canaveral Space Force Station

Loading…

Próximos Pases (próximas 24 horas)

TLE

ActualizadoSource: Space-Track

Época: Sep 14, 2026, 10:17 UTC

1 00119U 61015D   26257.42877924  .00000340  00000-0  16377-3 0  9993
2 00119  66.7267 156.3381 0102433 198.6821 161.0506 14.27424170371059

Sigue THOR ABLESTAR DEB en tiempo real con AllMySat

Download on the App Store